Location: Saint Louis
(38.6272°N, 90.1978°W)
Time: 10:16:29
(UTC-05:00)

ISS - Pass Details

Date: 11 August 2013
Orbit: 400 x 410 km, 51.6° (Epoch: 29 September)

Event Time Altitude Azimuth Distance (km) Brightness Sun altitude
Rises 20:38:03 0° 317° (NW) 2,360 2.1 -7.7°
Reaches altitude 10° 20:40:38 10° 337° (NNW) 1,479 0.3 -8.2°
Maximum altitude 20:43:01 18° 23° (NNE) 1,076 -1.1 -8.6°
Drops below altitude 10° 20:45:21 10° 69° (ENE) 1,456 -0.9 -9.0°
Enters shadow 20:46:02 - 77° (ENE) 1,663 -0.7 -9.1°
